DW8162 Weather Reports


time (UTC)temp
F
wind
direction
speed
knots
gust
knots
rain 1hr
in
rain 24hr
in
rain mn
in
humidity
%
barometer
mb
20260507082442 51 292 0.0 0.0 0.00 0.15 0.00 57 1011.2
20260507072441 52 291 0.0 2.6 0.00 0.15 0.00 59 1011.4
20260507065439 53 321 0.0 0.0 0.00 0.15 0.00 61 1011.5
20260507062439 53 323 0.0 0.0 0.00 0.15 0.00 60 1011.3
20260507055438 53 327 0.0 1.7 0.00 0.15 0.00 68 1011.3
20260507052436 54 21 0.0 0.9 0.00 0.15 0.00 79 1011.2
20260507045436 54 21 0.0 0.0 0.00 0.15 0.00 79 1011.3
20260507032434 54 21 0.0 0.0 0.00 0.15 0.15 79 1010.7
20260507025433 55 18 0.0 0.0 0.00 0.15 0.15 80 1010.7
20260507022432 55 18 0.9 4.3 0.00 0.15 0.15 79 1010.7
20260507005429 60 304 1.7 2.6 0.00 0.15 0.15 77 1010.4
20260507002429 60 304 0.0 0.0 0.00 0.15 0.15 78 1009.7
20260506235428 61 304 0.0 0.0 0.00 0.15 0.15 78 1009.1
20260506232426 61 304 0.0 0.0 0.00 0.15 0.15 77 1008.4
20260506225426 62 304 0.0 2.6 0.00 0.15 0.15 77 1008.5
20260506222425 64 250 0.0 0.9 0.00 0.15 0.15 79 1008.3
20260506215424 65 231 0.0 0.0 0.00 0.15 0.15 81 1007.7
20260506212423 66 231 0.0 1.7 0.00 0.15 0.15 84 1007.1
20260506205423 66 229 0.0 3.5 0.00 0.15 0.15 85 1006.8
20260506202422 65 228 0.0 0.0 0.00 0.15 0.15 85 1006.5
20260506195421 64 228 0.0 0.0 0.00 0.15 0.15 87 1006.6
20260506192420 64 228 0.0 0.0 0.00 0.15 0.15 87 1006.9
20260506185419 64 228 0.0 0.0 0.01 0.15 0.15 88 1006.9
20260506182418 63 228 0.0 0.0 0.01 0.15 0.15 91 1007.2
20260506172416 61 228 0.0 0.0 0.02 0.14 0.14 90 1007.3
20260506165447 61 227 0.0 0.0 0.01 0.13 0.13 89 1007.3
20260506162445 61 227 0.0 4.3 0.00 0.12 0.12 87 1007.4
20260506152443 61 224 0.9 5.2 0.09 0.12 0.12 88 1007.1
20260506145442 61 200 0.0 1.7 0.08 0.10 0.10 88 1007.4
20260506142441 61 267 1.7 7.0 0.03 0.03 0.03 87 1007.7
20260506135440 61 180 1.7 1.7 0.02 0.02 0.02 86 1007.2
20260506132440 61 226 0.0 0.0 0.00 0.00 0.00 86 1007.6
20260506122438 61 231 0.0 0.0 0.00 0.00 0.00 83 1008.0
20260506115437 62 223 0.0 5.2 0.00 0.00 0.00 78 1008.1
20260506112436 64 243 0.0 3.5 0.00 0.00 0.00 72 1007.9
20260506105435 66 204 0.0 4.3 0.00 0.00 0.00 66 1007.3
20260506102434 67 205 1.7 6.1 0.00 0.00 0.00 61 1006.9
20260506092433 68 232 1.7 1.7 0.00 0.00 0.00 58 1007.0